Simultaneous Nadir Overpasses (SNOs) Predictions

Prediction of SNOs between METOP-A and TERRA Satellite Orbit:

Table of predicted SNOs for the next 14.0 days since TLE Epoch: 4/6/2019
Index Date (METOP-A) Time (METOP-A) Lat,Lon (METOP-A) SZA (METOP-A ) Date (TERRA) Time (TERRA) Lat,Lon (TERRA) SZA (TERRA ) Distance(km) Time Diff (sec)
1 04/06/2019 13:21:54 81.45, 29.52 77.99 04/06/2019 13:22:38 81.44, 29.39 77.99 2.59 44
2 04/06/2019 14:12:34 -81.45,-162.88 102.00 04/06/2019 14:12:04 -81.45,-162.71 101.99 2.85 30
3 04/09/2019 08:56:07 81.45, 95.79 76.94 04/09/2019 08:56:52 81.45, 95.92 76.97 2.26 45
4 04/09/2019 09:46:47 -81.45, -96.56 103.04 04/09/2019 09:46:19 -81.44, -96.54 103.06 1.12 28
5 04/12/2019 04:30:20 81.45, 162.44 75.95 04/12/2019 04:31:07 81.45, 162.45 75.98 0.21 47
6 04/12/2019 05:21:00 -81.45, -29.87 104.02 04/12/2019 05:20:34 -81.45, -29.98 104.05 1.76 26
7 04/15/2019 00:04:33 81.45,-130.92 74.98 04/15/2019 00:05:22 81.45,-131.01 75.00 1.59 49
8 04/15/2019 00:55:14 -81.45, 36.41 105.03 04/15/2019 00:54:49 -81.45, 36.58 105.03 2.92 25
9 04/17/2019 19:38:47 81.45, -64.71 73.98 04/17/2019 19:39:38 81.44, -64.87 73.98 2.99 51




NCC Satellite Simultaneous Nadir Overpasses (SNOs) Prediction Service
